www.pogodaiklimat.ru

Погода и климат >> Архив погоды >> Иран >> Ilam


ПОГОДА в Ilam

  • Прогноз погоды в Ilam
  • Монитор погоды в Ilam
  • Климат города

АРХИВ ПОГОДЫ в Ilam

Время (UTC), дата Ветер
(напр.,м/с)
 
Видим.   Явления Облачность Т
(С)
Тd
(С)
f
(%)
Тe
(С)
Тes
(С)
Комфортность P
(гПа)
Po
(гПа)
Тmin
(С)
Tmax
(С)
R
(мм)
S
(см)
18 20.03 СЗ 2 10 км 3/3 1200 м
[Sc]
+6.0 +5.6 97 +3 +3 1013.5 864.5
21 20.03 В 1 10 км ясно +3.6 +3.5 99 +2 +2 1013.7 864.5
00 21.03 В 2 10 км ясно +2.9 +2.9 100 -1 -1 1014.1 864.5
03 21.03 ЮВ 2 8000 м дымка 10/6 1050 м
[Cb calv As op]
+4.3 +3.7 96 +1 +1 1015.3 865.0 +2.0
06 21.03 ЮВ 2 6000 м слабый дождь 10/8 1050 м
[Cb calv As op]
+6.8 +5.4 91 +4 +5 1017.1 866.6 0.4
09 21.03 ЮЗ 4 6000 м слабый дождь 10/8 900 м
[Cb calv As op]
+9.0 +4.2 72 +6 +7 1018.6 867.8
12 21.03 Ю 5 9000 м пыль {дождь} 9/8 900 м
[Cb calv Ac As]
+10.6 +0.9 51 +8 +9 1016.9 866.5 0.2
15 21.03 Ю 2 9000 м пыль {дождь} 8/6 1050 м
[Cb calv Ac As]
+9.7 +1.4 56 +9 +9 1017.1 866.8 +11.6
18 21.03 Ю 1 10 км 6/3 1200 м
[Sc Ac As]
+8.4 +4.2 75 +8 +8 1017.8 867.8
21 21.03 В 2 10 км 8/4 1200 м
[Sc Ac As]
+6.4 +4.9 90 +4 +4 1018.4 868.3
03 22.03 СВ 1 10 км 8/1 1350 м
[Cu hum Ac As]
+4.6 +3.7 94 +3 +3 1018.6 868.2 +4.5
06 22.03 ЮВ 3 10 км 3/3 1200 м
[Sc diur, vesp]
+11.4 +5.3 66 +10 +15 1018.0 869.1
09 22.03 Ю 5 10 км 8/8 900 м
[Cb calv]
+13.5 +5.3 58 +12 +13 1018.0 869.0
12 22.03 ЮВ 4 10 км 10/6 900 м
[Cb calv As op]
+13.9 +2.2 45 +13 +13 1014.7 866.2
15 22.03 ЮВ 4 10 км пыль 10/6 900 м
[Cb calv As op]
+12.0 +2.2 51 +10 +10 1014.2 865.8 +15.2
18 22.03 ЮВ 3 10 км 10/8 900 м
[Cb calv As op]
+11.6 +3.9 59 +10 +10 1014.4 866.7
21 22.03 Ю 3 10 км 10/8 900 м
[Cb calv As op]
+9.9 +5.9 76 +8 +8 1013.8 866.4
03 23.03 ЮВ 1 3000 м дождь 10/8 900 м
[Cb calv As op]
+6.9 +6.9 100 +6 +6 1011.9 863.8 +6.1
06 23.03 ЮВ 3 5000 м дождь 10/8 900 м
[Cb calv As op]
+8.7 +8.7 100 +6 +6 1011.9 864.2 14
09 23.03 ЮВ 5 5000 м пыль {дождь} 9/8 1050 м
[Cb calv Ac As]
+13.1 +7.8 70 +11 +12 1009.7 862.8
12 23.03 ЮВ 5 6000 м пыль {дождь} 10/4 1200 м
[Sc Ac As Cs]
+13.9 +9.9 77 +12 +13 1009.3 862.1 1
15 23.03 ЮВ 3 6000 м слабый дождь 10/8 1050 м
[Cb calv As op]
+11.0 +11.0 100 +9 +9 1011.0 862.9 +15.0
18 23.03 Ю 5 10 км 10/8 1050 м
[Cb calv As op]
+10.6 +10.4 99 +7 +7 1012.3 864.3
21 23.03 ЮВ 2 10 км 9/6 1050 м
[Cu Sc Ac As]
+10.0 +10.0 100 +8 +8 1010.5 863.6
00 24.03 ЮВ 2 10 км 9/5 1050 м
[Cb calv Ac As]
+8.2 +8.2 100 +6 +6 1009.9 862.7
03 24.03 В 3 10 км 10/6 900 м
[Cb calv As op]
+7.6 +7.6 100 +5 +5 1011.8 863.6 +7.6
06 24.03 ЮВ 2 10 км 9/6 900 м
[Cb calv Ac As]
+11.7 +11.4 98 +10 +12 1011.9 864.7
09 24.03 Ю 3 10 км слабый дождь 9/8 1050 м
[Cb calv As op]
+12.8 +8.7 76 +11 +13 1011.7 864.6
12 24.03 ЮВ 3 9000 м гроза без осадков {дождь} 9/9 750 м
[Cb cap As op]
+9.2 +8.4 95 +7 +7 1012.7 864.1 0.7
15 24.03 ЮВ 1 8000 м гроза, ливневой дождь 9/9 450 м
[Cb calv As op]
+7.6 +7.6 100 +6 +6 1014.5 865.1 +14.5
18 24.03 В 2 10 км ясно +6.4 +6.4 100 +4 +4 1015.7 866.8 4
21 24.03 В 3 10 км ясно +4.8 +4.8 100 +1 +1 1015.0 865.1
00 25.03 В 1 10 км ясно +4.9 +4.9 100 +3 +3 1014.5 864.7
03 25.03 ЮВ 2 10 км 5/1 1050 м
[Sc Ac As]
+3.9 +3.9 100 +1 +1 1016.0 865.3 +2.8
06 25.03 ЮВ 2 10 км 8/5 1050 м
[Cb calv Ac As]
+10.2 +6.2 76 +9 +11 1015.3 866.1
09 25.03 ЮВ 3 10 км 8/6 900 м
[Cb calv Ac As]
+13.1 +6.7 65 +12 +16 1014.5 865.7
12 25.03 Ю 3 10 км 6/6 900 м
[Cb calv Ac As]
+13.5 +7.3 66 +12 +15 1012.7 864.2
15 25.03 СЗ 3 10 км 6/5 900 м
[Cb calv Ac As]
+9.9 +8.3 90 +8 +8 1013.8 864.2 +14.5
18 25.03 В 1 10 км 3/0
[Ac As]
+7.7 +7.3 97 +7 +7 1013.7 865.1
21 25.03 ЮВ 1 10 км ясно +5.5 +5.4 99 +4 +4 1014.1 865.5
00 26.03 ЮВ 1 10 км ясно +4.6 +4.5 99 +3 +3 1014.9 866.0
03 26.03 ЮВ 2 8000 м дымка ясно +5.1 +4.8 98 +2 +2 1015.9 866.2 +3.7
06 26.03 ЮВ 2 10 км 1/1 1050 м
[Cu hum]
+11.2 +11.0 99 +10 +18 1017.1 868.3
09 26.03 ЮЗ 3 8000 м мгла 8/8 900 м
[Cb calv]
+12.8 +12.8 100 +11 +14 1017.7 869.0
12 26.03 ЮЗ 5 10 км 8/8 900 м
[Cu med, cong]
+14.5 +13.9 96 +13 +14 1017.6 869.0
15 26.03 З 2 10 км 5/5 900 м
[Cb calv]
+12.0 +11.4 96 +11 +11 1019.4 869.9 +15.9
18 26.03 штиль 0 10 км 3/0
[Ac trans]
+7.8 +7.8 100 +7 +7 1020.5 871.1
21 26.03 В 1 10 км ясно +5.9 +5.9 100 +5 +5 1020.1 871.3
00 27.03 В 2 10 км ясно +5.7 +5.7 100 +3 +3 1019.7 870.6
03 27.03 ЮВ 2 10 км ясно +4.9 +4.8 99 +2 +2 1020.9 870.8 +3.0
06 27.03 ЮВ 2 10 км ясно +12.0 +4.5 60 +11 +20 1021.3 871.8
09 27.03 З 3 10 км 4/4 1200 м
[Cu hum]
+15.0 +4.1 48 +14 +23 1020.8 871.8
12 27.03 З 4 10 км 5/5 1050 м
[Cb calv]
+16.2 +6.9 54 +16 +18 1018.9 870.4
15 27.03 З 3 10 км 5/3 1200 м
[Cu hum Ci ing]
+13.1 +5.5 60 +12 +12 1020.1 870.5 +17.2

 

Местоположение метеостанции Ilam (Иран): широта 33.63 долгота 46.43 высота над уровнем моря 1337 м.

В архиве по умолчанию представлена погода в Ilam за последнюю неделю. Архивные данные за месяц целиком и за предыдущие месяцы, начиная с января 2011 года, Вы можете получить, выбрав интересующий диапазон дат из раскрывающегося списка и нажав кнопку "Ввод!".

Внимание! Время в таблицах - всемирное. Для получения местного времени необходимо прибавить поправку, которая в Ilam равна 3.5 ч.

Смотрите также архив погоды в соседних городах и на ближайших метеорологических станциях:

Погода в Badrah (Ирак) (74 км)
Погода в Kermanshah (Иран) (95 км)
Погода в Khanaqin (Ирак) (119 км)
Погода в Ali Al-Gharbi (Ирак) (132 км)
Погода в Ubaydah Bin Al Jarrah (Ирак) (142 км)
Погода в Azizyah (Ирак) (149 км)
Погода в Ayn Al-Tamar (Ирак) (159 км)
Погода в Kut-Al-Hai (Ирак) (166 км)
Погода в Al-Khalis (Ирак) (177 км)
Погода в Halabcha (Ирак) (180 км)

Пояснения к столбцам:

Ветер - указаны скорость ветра в м/с - средняя за 10 мин, порывы в срок и между сроками (в фигурных скобках) и направление, откуда дует ветер: С - северный, СВ - северо-восточный, В - восточный, ЮВ - юго-восточный, Ю - южный, ЮЗ - юго-западный, З - западный, СЗ - северо-западный.
Видимость - горизонтальная дальность видимости в метрах или километрах. При видимости от 1 до 10 км при отсутствии осадков обычно наблюдается дымка, при ухудшении видимости до 1 км и менее - туман. В сухую погоду видимость может ухудшаться дымом, пылью или мглою.
Явления - указаны атмосферные явления, наблюдавшиеся в срок или в последний час перед сроком; фигурными скобками обозначены явления, наблюдавшиеся между сроками (за 1-3 часа до срока); квадратными скобками обозначены град или гололедные отложения с указанием их диаметра в мм.
Облачность - указаны через наклонную черту общая и нижняя облачность в баллах и высота нижней границы облаков в метрах; квадратными скобками обозначены формы облаков: Ci - перистые, Cs - перисто-слоистые, Cc - перисто-кучевые, Ac - высококучевые, As - высокослоистые, Sc - слоисто-кучевые, Ns - слоисто-дождевые, Cu - кучевые, Cb - кучево-дождевые. Подробнее классификацию облаков см. в Атласе облаков (PDF).
T - Температура воздуха - температура, измеренная на высоте 2 м над землей.
Td - Температура точки росы - температура, при понижении до которой содержащийся в воздухе водяной пар достигнет насыщения.
f - Относительная влажность воздуха - влажноcть воздуха, измеренная на высоте 2 м над землей.
Te - Эффективная температура - температура, которую ощущает одетый по сезону человек в тени. Характеристика душности погоды. При расчете учитывается влияние влажности воздуха и скорости ветра на теплоощущения человека.
Tes - Эффективная температура на солнце - температура, которую ощущает человек, с поправкой на солнечный нагрев. Характеристика знойности погоды. Зависит от высоты солнца над горизонтом, облачности и скорости ветра. Ночью, в пасмурную погоду, а также при ветре 12 м/с и более поправка равна нулю.
P - Атмосферное давление - приведенное к уровню моря атмосферное давление.
Po - Атмосферное давление - измеренное на уровне метеостанции атмосферное давление.
Tmin - Минимальная температура - минимум температуры воздуха на высоте 2 м над землей.
Tmax - Максимальная температура - максимум температуры воздуха на высоте 2 м над землей.
R - Количество осадков - Количество выпавших осадков, мм. При наведении курсора мыши на число - период времени, за который выпало указанное количество осадков.
S - Снежный покров - Высота снежного покрова, см. При наведении курсора мыши на число - состояние снежного покрова и степень покрытия местности в баллах.